This is the latest recevied weather packets stored in our database for station/object N5COP-13. If no packets are shown the sender has not sent any weather packets the latest 10 day(s).
| Time | Temp. | Humidity | Pressure | Rain* | Wind** | Luminosity | Snow |
|---|---|---|---|---|---|---|---|
| 1777754870 | 21.67° C | 22% | 1021 hPa | 0 mm | - | 749 W/m² | - |
| 1777754566 | 21.67° C | 22% | 1021.1 hPa | 0 mm | - | 748 W/m² | - |
| 1777754264 | 22.22° C | 22% | 1021.1 hPa | 0 mm | - | 760 W/m² | - |
| 1777753956 | 21.67° C | 22% | 1021.2 hPa | 0 mm | - | 780 W/m² | - |
| 1777753650 | 21.67° C | 22% | 1021.3 hPa | 0 mm | - | 790 W/m² | - |
| 1777753349 | 21.11° C | 23% | 1021.3 hPa | 0 mm | - | 811 W/m² | - |
| 1777753046 | 21.67° C | 23% | 1021.5 hPa | 0 mm | - | 820 W/m² | - |
| 1777752742 | 21.67° C | 22% | 1021.5 hPa | 0 mm | - | 820 W/m² | - |
| 1777752438 | 22.22° C | 22% | 1021.3 hPa | 0 mm | - | 827 W/m² | - |
| 1777752135 | 22.22° C | 22% | 1021.8 hPa | 0 mm | - | 871 W/m² | - |
| 1777751833 | 22.78° C | 22% | 1021.6 hPa | 0 mm | - | 890 W/m² | - |
| 1777751529 | 22.78° C | 21% | 1021.7 hPa | 0 mm | - | 883 W/m² | - |
| 1777751226 | 22.22° C | 22% | 1021.6 hPa | 0 mm | - | 890 W/m² | - |
| 1777750923 | 22.22° C | 22% | 1021.7 hPa | 0 mm | - | 858 W/m² | - |
| 1777750618 | 21.67° C | 23% | 1021.8 hPa | 0 mm | - | 866 W/m² | - |
| 1777750310 | 21.11° C | 22% | 1021.9 hPa | 0 mm | - | 881 W/m² | - |
| 1777750006 | 21.11° C | 22% | 1022 hPa | 0 mm | - | 876 W/m² | - |
| 1777749703 | 21.11° C | 21% | 1022.1 hPa | 0 mm | - | 661 W/m² | - |
| 1777749400 | 21.67° C | 22% | 1022.1 hPa | 0 mm | - | 309 W/m² | - |
| 1777749097 | 21.11° C | 23% | 1022.2 hPa | 0 mm | - | 943 W/m² | - |
| 1777748795 | 20.56° C | 23% | 1021.9 hPa | 0 mm | - | 904 W/m² | - |
| 1777748493 | 20.56° C | 23% | 1022.1 hPa | 0 mm | - | 927 W/m² | - |
| 1777748192 | 20.56° C | 23% | 1022.3 hPa | 0 mm | - | 895 W/m² | - |
| 1777747884 | 20.56° C | 23% | 1022.2 hPa | 0 mm | - | 891 W/m² | - |
| 1777747580 | 21.11° C | 23% | 1022.5 hPa | 0 mm | - | 889 W/m² | - |
* Rain latest hour (hover to see other rain measurements)
** Current wind speed in m/s (hover to see current wind gust speed)